Charleston, SC

7:59 PM EDT on August 22, 2017 (GMT -0400)
Charleston Air Force Base-International

Weather History for KCHS - March, 2012

Change the Weather History Date:

Thursday, March 29, 2012

  Actual Average Record
Temperature  
Mean Temperature 75 °F 61 °F  
Max Temperature 87 °F 73 °F 87 °F (1985)
Min Temperature 62 °F 50 °F 30 °F (1966)
Degree Days  
Heating Degree Days 0 5  
Month to date heating degree days 77 230  
Since 1 July heating degree days 1339 1866  
Cooling Degree Days 10 1  
Month to date cooling degree days 79 27  
Year to date cooling degree days 96 34  
Growing Degree Days 24 (Base 50)    
Moisture  
Dew Point 57 °F    
Average Humidity 61    
Maximum Humidity 87    
Minimum Humidity 34    
Precipitation  
Precipitation 0.00 in 0.12 in 4.13 in (1990)
Month to date precipitation 5.51 3.47  
Year to date precipitation 8.42 10.14  
Snow  
Snow 0.00 in 0.00 in - ()
Month to date snowfall 0.0  
Since 1 July snowfall 0.0 0.5  
Snow Depth 0.00 in    
Sea Level Pressure  
Sea Level Pressure 29.95 in    
Wind  
Wind Speed 9 mph (WSW)    
Max Wind Speed 18 mph    
Max Gust Speed 24 mph    
Visibility 10 miles    
Events      
T = Trace of Precipitation, MM = Missing Value Source: NWS Daily Summary

Daily Weather History Graph

Daily Weather History Graph

Search for Another Location

Airport or City:

Trip Planner

Search our weather history database for the weather conditions in past years. The results will help you decide how hot, cold, wet, or windy it might be!

Date:

Astronomy

Mar. 29, 2012 Rise Set
Actual Time 7:11 AM EDT 7:38 PM EDT
Civil Twilight 6:46 AM EDT 8:03 PM EDT
Nautical Twilight 6:17 AM EDT 8:32 PM EDT
Astronomical Twilight 5:48 AM EDT 9:02 PM EDT
Moon 11:34 AM EDT (3/29) 1:12 AM EDT (3/29)
Length of Visible Light 13h 16m
Length of Day
12h 27m
Waxing Crescent, 39% of the Moon is Illuminated
Mar 29
Waxing Crescent
Mar 30
First Quarter
Apr 6
Full
Apr 13
Last Quarter
Apr 21
New

Hourly Weather History & Observations

Time (EDT) Temp. Heat Index Dew Point Humidity Pressure Visibility Wind Dir Wind Speed Gust Speed Precip Events Conditions
12:56 AM 66.9 °F - 62.1 °F 84% 30.01 in 10.0 mi SW 12.7 mph - N/A   Clear
1:56 AM 66.9 °F - 62.1 °F 84% 30.00 in 10.0 mi SW 8.1 mph - N/A   Clear
2:56 AM 66.0 °F - 61.0 °F 84% 29.98 in 10.0 mi SW 10.4 mph - N/A   Clear
3:56 AM 66.0 °F - 60.1 °F 81% 29.96 in 10.0 mi WSW 11.5 mph - N/A   Clear
4:56 AM 64.9 °F - 59.0 °F 81% 29.96 in 10.0 mi WSW 9.2 mph - N/A   Clear
5:56 AM 64.0 °F - 57.9 °F 80% 29.96 in 10.0 mi West 6.9 mph - N/A   Clear
6:56 AM 63.0 °F - 57.0 °F 81% 29.97 in 10.0 mi WSW 5.8 mph - N/A   Clear
7:56 AM 63.0 °F - 57.0 °F 81% 29.99 in 10.0 mi WSW 6.9 mph - N/A   Partly Cloudy
8:56 AM 68.0 °F - 57.0 °F 68% 29.99 in 10.0 mi West 10.4 mph - N/A   Partly Cloudy
9:56 AM 73.0 °F - 55.9 °F 55% 29.99 in 10.0 mi West 10.4 mph - N/A   Partly Cloudy
10:56 AM 78.1 °F - 55.9 °F 46% 29.99 in 10.0 mi West 12.7 mph - N/A   Scattered Clouds
11:56 AM 81.0 °F 80.5 °F 54.0 °F 39% 29.98 in 10.0 mi West 13.8 mph 21.9 mph N/A   Scattered Clouds
12:56 PM 82.9 °F - 52.0 °F 34% 29.96 in 10.0 mi West 11.5 mph - N/A   Scattered Clouds
1:56 PM 84.9 °F 83.3 °F 54.0 °F 34% 29.93 in 10.0 mi West 8.1 mph - N/A   Scattered Clouds
2:56 PM 86.0 °F 84.5 °F 55.0 °F 35% 29.91 in 10.0 mi NW 15.0 mph 19.6 mph N/A   Scattered Clouds
3:56 PM 86.0 °F 84.5 °F 55.0 °F 35% 29.89 in 10.0 mi West 12.7 mph 17.3 mph N/A   Scattered Clouds
4:56 PM 84.9 °F 83.6 °F 55.0 °F 36% 29.88 in 10.0 mi West 11.5 mph 19.6 mph N/A   Mostly Cloudy
5:56 PM 84.0 °F 82.9 °F 55.0 °F 37% 29.88 in 10.0 mi West 10.4 mph 19.6 mph N/A   Mostly Cloudy
6:56 PM 81.0 °F 81.0 °F 57.0 °F 44% 29.89 in 10.0 mi WSW 8.1 mph - N/A   Mostly Cloudy
7:56 PM 78.1 °F - 55.9 °F 46% 29.90 in 10.0 mi West 6.9 mph - N/A   Scattered Clouds
8:56 PM 72.0 °F - 57.0 °F 59% 29.92 in 10.0 mi SSW 8.1 mph - N/A   Scattered Clouds
9:56 PM 71.1 °F - 59.0 °F 66% 29.94 in 10.0 mi SW 5.8 mph - N/A   Partly Cloudy
10:56 PM 68.0 °F - 59.0 °F 73% 29.96 in 10.0 mi SW 6.9 mph - N/A   Clear
11:56 PM 68.0 °F - 59.0 °F 73% 29.95 in 10.0 mi SW 6.9 mph - N/A   Partly Cloudy